Tracking 18186 objects as of 29-March-2017
HD Live streaming from Space Station
objects crossing your sky now

COSMOS 2318 (GLONASS)

Track COSMOS 2318 (GLONASS) now!
COSMOS 2318 (GLONASS) is classified as:


NORAD ID: 23622
Int'l Code: 1995-037C
Perigee: 19,078.3 km
Apogee: 19,196.1 km
Inclination: 66.4 °
Period: 675.7 minutes
Semi major axis: 25508 km
RCS: 3.5243 m2 (large)
Launch date: July 24, 1995
Source: Commonwealth of Independent States (former USSR) (CIS)
Launch site: TYURATAM MISSILE AND SPACE COMPLEX (TTMTR)
SV:
Your satellite tracking list
Your tracking list is empty





NASA's NSSDC Master Catalog

Two Line Element Set (TLE):
1 23622U 95037C   17087.27126852 +.00000017 +00000-0 +00000-0 0  9993
2 23622 066.3655 312.8865 0023106 105.9945 010.0458 02.13101183168469
Source of the keplerian elements: AFSPC